Time,TemperatureF,DewpointF,PressureIn,WindDirection,WindDirectionDegrees,WindSpeedMPH,WindSpeedGustMPH,Humidity,HourlyPrecipIn,Conditions,Clouds,dailyrainin,SolarRadiationWatts/m^2,SoftwareType,DateUTC
2013-01-15 00:22:00,8.0,-1.0,-100.00,SW,217,5.0,10.0,66,0.00,,,0.02,1.000000,,2013-01-15 05:22:00,
2013-01-15 00:33:00,8.0,-1.0,-100.00,SW,217,5.0,10.0,66,0.00,,,0.02,1.000000,,2013-01-15 05:33:00,
2013-01-15 00:42:00,8.0,-1.0,-100.00,SW,217,5.0,10.0,66,0.00,,,0.02,1.000000,,2013-01-15 05:42:00,
2013-01-15 00:52:00,8.0,-1.0,-100.00,SW,217,5.0,10.0,66,0.00,,,0.02,1.000000,,2013-01-15 05:52:00,
2013-01-15 01:22:00,8.0,-2.0,-100.00,SW,216,4.0,11.0,64,0.00,,,0.02,1.000000,,2013-01-15 06:22:00,
2013-01-15 01:33:00,8.0,-2.0,-100.00,SW,216,4.0,11.0,64,0.00,,,0.02,1.000000,,2013-01-15 06:33:00,
2013-01-15 01:42:00,8.0,-2.0,-100.00,SW,216,4.0,11.0,64,0.00,,,0.02,1.000000,,2013-01-15 06:42:00,
2013-01-15 01:52:00,8.0,-2.0,-100.00,SW,216,4.0,11.0,64,0.00,,,0.02,1.000000,,2013-01-15 06:52:00,
2013-01-15 02:22:00,7.0,-2.0,-100.00,SSW,210,4.0,9.0,66,0.00,,,0.02,1.000000,,2013-01-15 07:22:00,
2013-01-15 02:33:00,7.0,-2.0,-100.00,SSW,210,4.0,9.0,66,0.00,,,0.02,1.000000,,2013-01-15 07:33:00,
2013-01-15 02:42:00,7.0,-2.0,-100.00,SSW,210,4.0,9.0,66,0.00,,,0.02,1.000000,,2013-01-15 07:42:00,
2013-01-15 02:52:00,7.0,-2.0,-100.00,SSW,210,4.0,9.0,66,0.00,,,0.02,1.000000,,2013-01-15 07:52:00,
2013-01-15 03:22:00,3.0,-4.0,-100.00,SSE,159,1.0,9.0,72,0.00,,,0.02,1.000000,,2013-01-15 08:22:00,
2013-01-15 03:33:00,3.0,-4.0,-100.00,SSE,159,1.0,9.0,72,0.00,,,0.02,1.000000,,2013-01-15 08:33:00,
2013-01-15 03:42:00,3.0,-4.0,-100.00,SSE,159,1.0,9.0,72,0.00,,,0.02,1.000000,,2013-01-15 08:42:00,
2013-01-15 03:52:00,3.0,-4.0,-100.00,SSE,159,1.0,9.0,72,0.00,,,0.02,1.000000,,2013-01-15 08:52:00,
2013-01-15 04:22:00,4.0,-3.0,-100.00,South,177,2.0,6.0,73,0.00,,,0.02,1.000000,,2013-01-15 09:22:00,
2013-01-15 04:33:00,4.0,-3.0,-100.00,South,177,2.0,6.0,73,0.00,,,0.02,1.000000,,2013-01-15 09:33:00,
2013-01-15 04:42:00,4.0,-3.0,-100.00,South,177,2.0,6.0,73,0.00,,,0.02,1.000000,,2013-01-15 09:42:00,
2013-01-15 04:52:00,4.0,-3.0,-100.00,South,177,2.0,6.0,73,0.00,,,0.02,1.000000,,2013-01-15 09:52:00,
2013-01-15 05:22:00,5.0,-2.0,-100.00,SSE,168,3.0,6.0,71,0.00,,,0.02,1.000000,,2013-01-15 10:22:00,
2013-01-15 05:32:00,5.0,-2.0,-100.00,SSE,168,3.0,6.0,71,0.00,,,0.02,1.000000,,2013-01-15 10:32:00,
2013-01-15 05:42:00,5.0,-2.0,-100.00,SSE,168,3.0,6.0,71,0.00,,,0.02,1.000000,,2013-01-15 10:42:00,
2013-01-15 05:52:00,5.0,-2.0,-100.00,SSE,168,3.0,6.0,71,0.00,,,0.02,1.000000,,2013-01-15 10:52:00,
2013-01-15 06:12:00,8.0,-2.0,-100.00,SSE,154,4.0,10.0,64,0.00,,,0.02,1.000000,,2013-01-15 11:12:00,
2013-01-15 06:22:00,8.0,-2.0,-100.00,SSE,154,4.0,10.0,64,0.00,,,0.02,1.000000,,2013-01-15 11:22:00,
2013-01-15 06:33:00,8.0,-2.0,-100.00,SSE,154,4.0,10.0,64,0.00,,,0.02,1.000000,,2013-01-15 11:33:00,
2013-01-15 06:42:00,8.0,-2.0,-100.00,SSE,154,4.0,10.0,64,0.00,,,0.02,1.000000,,2013-01-15 11:42:00,
2013-01-15 06:52:00,8.0,-2.0,-100.00,SSE,154,4.0,10.0,64,0.00,,,0.02,1.000000,,2013-01-15 11:52:00,
2013-01-15 07:22:00,10.0,-1.0,-100.00,South,181,5.0,13.0,61,0.00,,,0.02,1.000000,,2013-01-15 12:22:00,
2013-01-15 07:33:00,10.0,-1.0,-100.00,South,181,5.0,13.0,61,0.00,,,0.02,1.000000,,2013-01-15 12:33:00,
2013-01-15 07:42:00,10.0,-1.0,-100.00,South,181,5.0,13.0,61,0.00,,,0.02,1.000000,,2013-01-15 12:42:00,
2013-01-15 07:53:00,10.0,-1.0,-100.00,South,181,5.0,13.0,61,0.00,,,0.02,1.000000,,2013-01-15 12:53:00,
2013-01-15 08:23:00,10.0,1.0,-100.00,SSW,207,4.0,9.0,65,0.00,,,0.02,1.000000,,2013-01-15 13:23:00,
2013-01-15 08:33:00,10.0,1.0,-100.00,SSW,207,4.0,9.0,65,0.00,,,0.02,1.000000,,2013-01-15 13:33:00,
2013-01-15 08:43:00,10.0,1.0,-100.00,SSW,207,4.0,9.0,65,0.00,,,0.02,1.000000,,2013-01-15 13:43:00,
2013-01-15 08:53:00,10.0,1.0,-100.00,SSW,207,4.0,9.0,65,0.00,,,0.02,1.000000,,2013-01-15 13:53:00,
2013-01-15 09:23:00,10.0,3.0,-100.00,SSW,201,4.0,11.0,73,0.00,,,0.02,5.000000,,2013-01-15 14:23:00,
2013-01-15 09:33:00,10.0,3.0,-100.00,SSW,201,4.0,11.0,73,0.00,,,0.02,5.000000,,2013-01-15 14:33:00,
2013-01-15 09:43:00,10.0,3.0,-100.00,SSW,201,4.0,11.0,73,0.00,,,0.02,5.000000,,2013-01-15 14:43:00,
2013-01-15 09:53:00,10.0,3.0,-100.00,SSW,201,4.0,11.0,73,0.00,,,0.02,5.000000,,2013-01-15 14:53:00,
2013-01-15 10:23:00,13.0,5.0,-100.00,SW,229,6.0,13.0,71,0.00,,,0.02,55.000000,,2013-01-15 15:23:00,
2013-01-15 10:33:00,13.0,5.0,-100.00,SW,229,6.0,13.0,71,0.00,,,0.02,55.000000,,2013-01-15 15:33:00,
2013-01-15 10:43:00,13.0,5.0,-100.00,SW,229,6.0,13.0,71,0.00,,,0.02,55.000000,,2013-01-15 15:43:00,
2013-01-15 10:53:00,13.0,5.0,-100.00,SW,229,6.0,13.0,71,0.00,,,0.02,55.000000,,2013-01-15 15:53:00,
2013-01-15 11:22:00,16.0,7.0,-100.00,SW,216,6.0,15.0,66,0.00,,,0.02,168.000000,,2013-01-15 16:22:00,
2013-01-15 11:33:00,16.0,7.0,-100.00,SW,216,6.0,15.0,66,0.00,,,0.02,168.000000,,2013-01-15 16:33:00,
2013-01-15 11:42:00,16.0,7.0,-100.00,SW,216,6.0,15.0,66,0.00,,,0.02,168.000000,,2013-01-15 16:42:00,
2013-01-15 11:53:00,16.0,7.0,-100.00,SW,216,6.0,15.0,66,0.00,,,0.02,168.000000,,2013-01-15 16:53:00,
2013-01-15 12:22:00,21.0,7.0,-100.00,SW,230,6.0,16.0,54,0.00,,,0.02,323.000000,,2013-01-15 17:22:00,
2013-01-15 12:33:00,21.0,7.0,-100.00,SW,230,6.0,16.0,54,0.00,,,0.02,323.000000,,2013-01-15 17:33:00,
2013-01-15 12:42:00,21.0,7.0,-100.00,SW,230,6.0,16.0,54,0.00,,,0.02,323.000000,,2013-01-15 17:42:00,
2013-01-15 12:53:00,21.0,7.0,-100.00,SW,230,6.0,16.0,54,0.00,,,0.02,323.000000,,2013-01-15 17:53:00,
2013-01-15 13:23:00,22.0,3.0,-100.00,WSW,238,8.0,17.0,43,0.00,,,0.02,388.000000,,2013-01-15 18:23:00,
2013-01-15 13:33:00,22.0,3.0,-100.00,WSW,238,8.0,17.0,43,0.00,,,0.02,388.000000,,2013-01-15 18:33:00,
2013-01-15 13:43:00,22.0,3.0,-100.00,WSW,238,8.0,17.0,43,0.00,,,0.02,388.000000,,2013-01-15 18:43:00,
2013-01-15 13:53:00,22.0,3.0,-100.00,WSW,238,8.0,17.0,43,0.00,,,0.02,388.000000,,2013-01-15 18:53:00,
2013-01-15 14:23:00,25.0,1.0,-100.00,WSW,251,8.0,19.0,35,0.00,,,0.01,405.000000,,2013-01-15 19:23:00,
2013-01-15 14:33:00,25.0,1.0,-100.00,WSW,251,8.0,19.0,35,0.00,,,0.01,405.000000,,2013-01-15 19:33:00,
2013-01-15 14:42:00,25.0,1.0,-100.00,WSW,251,8.0,19.0,35,0.00,,,0.01,405.000000,,2013-01-15 19:42:00,
2013-01-15 14:53:00,25.0,1.0,-100.00,WSW,251,8.0,19.0,35,0.00,,,0.01,405.000000,,2013-01-15 19:53:00,
2013-01-15 15:23:00,26.0,0.0,-100.00,West,262,5.0,16.0,32,0.00,,,0.01,367.000000,,2013-01-15 20:23:00,
2013-01-15 15:33:00,26.0,0.0,-100.00,West,262,5.0,16.0,32,0.00,,,0.01,367.000000,,2013-01-15 20:33:00,
2013-01-15 15:43:00,26.0,0.0,-100.00,West,262,5.0,16.0,32,0.00,,,0.01,367.000000,,2013-01-15 20:43:00,
2013-01-15 15:52:00,26.0,0.0,-100.00,West,262,5.0,16.0,32,0.00,,,0.01,367.000000,,2013-01-15 20:52:00,
2013-01-15 16:23:00,25.0,2.0,-100.00,SW,222,7.0,14.0,36,0.00,,,0.01,202.000000,,2013-01-15 21:23:00,
2013-01-15 16:33:00,25.0,2.0,-100.00,SW,222,7.0,14.0,36,0.00,,,0.01,202.000000,,2013-01-15 21:33:00,
2013-01-15 16:43:00,25.0,2.0,-100.00,SW,222,7.0,14.0,36,0.00,,,0.01,202.000000,,2013-01-15 21:43:00,
2013-01-15 16:52:00,25.0,2.0,-100.00,SW,222,7.0,14.0,36,0.00,,,0.01,202.000000,,2013-01-15 21:52:00,
2013-01-15 17:23:00,24.0,3.0,-100.00,SW,220,6.0,12.0,39,0.00,,,0.00,126.000000,,2013-01-15 22:23:00,
2013-01-15 17:33:00,24.0,3.0,-100.00,SW,220,6.0,12.0,39,0.00,,,0.00,126.000000,,2013-01-15 22:33:00,
2013-01-15 17:43:00,24.0,3.0,-100.00,SW,220,6.0,12.0,39,0.00,,,0.00,126.000000,,2013-01-15 22:43:00,
2013-01-15 17:52:00,24.0,3.0,-100.00,SW,220,6.0,12.0,39,0.00,,,0.00,126.000000,,2013-01-15 22:52:00,
2013-01-15 18:22:00,22.0,3.0,-100.00,SSW,193,5.0,14.0,43,0.00,,,0.00,9.000000,,2013-01-15 23:22:00,
2013-01-15 18:33:00,22.0,3.0,-100.00,SSW,193,5.0,14.0,43,0.00,,,0.00,9.000000,,2013-01-15 23:33:00,
2013-01-15 18:43:00,22.0,3.0,-100.00,SSW,193,5.0,14.0,43,0.00,,,0.00,9.000000,,2013-01-15 23:43:00,
2013-01-15 18:53:00,22.0,3.0,-100.00,SSW,193,5.0,14.0,43,0.00,,,0.00,9.000000,,2013-01-15 23:53:00,
2013-01-15 19:22:00,19.0,4.0,-100.00,South,188,4.0,9.0,51,0.00,,,0.00,1.000000,,2013-01-16 00:22:00,
2013-01-15 19:33:00,19.0,4.0,-100.00,South,188,4.0,9.0,51,0.00,,,0.00,1.000000,,2013-01-16 00:33:00,
2013-01-15 19:43:00,19.0,4.0,-100.00,South,188,4.0,9.0,51,0.00,,,0.00,1.000000,,2013-01-16 00:43:00,
2013-01-15 19:52:00,19.0,4.0,-100.00,South,188,4.0,9.0,51,0.00,,,0.00,1.000000,,2013-01-16 00:52:00,
2013-01-15 20:22:00,21.0,7.0,-100.00,SSW,203,6.0,13.0,53,0.00,,,0.00,1.000000,,2013-01-16 01:22:00,
2013-01-15 20:33:00,21.0,7.0,-100.00,SSW,203,6.0,13.0,53,0.00,,,0.00,1.000000,,2013-01-16 01:33:00,
2013-01-15 20:42:00,21.0,7.0,-100.00,SSW,203,6.0,13.0,53,0.00,,,0.00,1.000000,,2013-01-16 01:42:00,
2013-01-15 20:52:00,21.0,7.0,-100.00,SSW,203,6.0,13.0,53,0.00,,,0.00,1.000000,,2013-01-16 01:52:00,
2013-01-15 21:22:00,20.0,6.0,-100.00,SSW,204,7.0,17.0,53,0.00,,,0.00,1.000000,,2013-01-16 02:22:00,
2013-01-15 21:32:00,20.0,6.0,-100.00,SSW,204,7.0,17.0,53,0.00,,,0.00,1.000000,,2013-01-16 02:32:00,
2013-01-15 21:42:00,20.0,6.0,-100.00,SSW,204,7.0,17.0,53,0.00,,,0.00,1.000000,,2013-01-16 02:42:00,
2013-01-15 21:52:00,20.0,6.0,-100.00,SSW,204,7.0,17.0,53,0.00,,,0.00,1.000000,,2013-01-16 02:52:00,
2013-01-15 22:22:00,19.0,7.0,-100.00,SSW,198,5.0,14.0,59,0.00,,,0.00,1.000000,,2013-01-16 03:22:00,
2013-01-15 22:33:00,19.0,7.0,-100.00,SSW,198,5.0,14.0,59,0.00,,,0.00,1.000000,,2013-01-16 03:33:00,
2013-01-15 22:43:00,19.0,7.0,-100.00,SSW,198,5.0,14.0,59,0.00,,,0.00,1.000000,,2013-01-16 03:43:00,
2013-01-15 22:52:00,19.0,7.0,-100.00,SSW,198,5.0,14.0,59,0.00,,,0.00,1.000000,,2013-01-16 03:52:00,
2013-01-15 23:22:00,19.0,9.0,-100.00,SSW,208,6.0,12.0,64,0.00,,,0.00,1.000000,,2013-01-16 04:22:00,
2013-01-15 23:32:00,19.0,9.0,-100.00,SSW,208,6.0,12.0,64,0.00,,,0.00,1.000000,,2013-01-16 04:32:00,
2013-01-15 23:42:00,19.0,9.0,-100.00,SSW,208,6.0,12.0,64,0.00,,,0.00,1.000000,,2013-01-16 04:42:00,
2013-01-15 23:52:00,19.0,9.0,-100.00,SSW,208,6.0,12.0,64,0.00,,,0.00,1.000000,,2013-01-16 04:52:00,